User: anonymous   Login
Location: Augirein
(42.9320°N, 0.9181°E)
Time: 20:20:54
(UTC+00:00)
Language:

OBJECT B - Orbit

View from above orbital plane
View from above orbital plane
View from above satellite
View from above satellite

Ground track
Ground track

The orbit data is extracted from the following two-line orbital elements,

1 45940U 20051B   22016.19104961  .00006477  00000-0  23546-3 0  9999
2 45940  97.4526 100.9425 0011189 165.3732 278.4964 15.28556335 82367
Epoch (UTC): 16 January 2022 04:35:06
Eccentricity: 0.0011189
inclination: 97.4526°
perigee height: 472 km
apogee height: 488 km
right ascension of ascending node: 100.9425°
argument of perigee: 165.3732°
revolutions per day: 15.28556335
mean anomaly at epoch: 278.4964°
orbit number at epoch: 8236

The dashed part of the orbit path shows where the satellite is in the earth's shadow,  

DLR